Regional Weather Roundup
Issued by NWS

Home | Current Version | Previous Version | Graphics & Text | Print | Product List | Glossary On
Versions: 1 2 3 4 5 6 7 8 9 10 11 12 13 14 15 16 17 18 19 20 21 22 23 24 25 26 27 28 29 30 31 32 33 34 35 36 37 38 39 40 41 42 43 44 45 46 47 48 49 50
000
ASUS43 KIND 301959
RWRIN

WEATHER ROUNDUP FOR INDIANA
NATIONAL WEATHER SERVICE INDIANAPOLIS IN
400 PM EDT FRI SEP 30 2016

NOTE: "FAIR" INDICATES FEW OR NO CLOUDS BELOW 12,000 FEET WITH NO
SIGNIFICANT WEATHER AND/OR OBSTRUCTIONS TO VISIBILITY.

* - STATION DOES NOT REPORT WEATHER SUCH AS PRECIPITATION OR FOG.

+ - STATION NOT QUALITY CONTROLLED BY THE NATIONAL WEATHER SERVICE.
    USE DATA WITH CAUTION...ESPECIALLY DEWPOINT AND RELATIVE
    HUMIDITY OBSERVATIONS.

INZ001>003-010>013-019-020-302100-
NORTHWEST INDIANA

CITY           SKY/WX    TMP DP  RH WIND       PRES   REMARKS

$$

LMZ046-743>745-302100-
SOUTHERN LAKE MICHIGAN

STATION/POSITION TIME  TEMP    WIND        PRES    WAVE
                       AIR SEA DIR/SP/G            HT
                 (UTC) (F)     (DEG/KT/KT) (MB)    (FT)
BURNS HARBOR     1940   65      50/ 14/ 17 1018.3S
MICHIGAN CITY    1930   62      30/ 15/ 16   N/A
5NW MICH CITY    1950   64 64   50/ 14/ 17   N/A     5

$$

INZ004-005-014>016-021>024-302100-
NORTH CENTRAL INDIANA

CITY           SKY/WX    TMP DP  RH WIND       PRES   REMARKS
ELKHART        CLOUDY    63  59  88 NE14      30.06S
GOSHEN         HVY RAIN  62  59  90 NE7       30.05F VSB 3/4
SOUTH BEND     LGT RAIN  63  60  90 NE10      30.06F

$$

INZ006>009-017-018-025>027-302100-
NORTHEAST INDIANA

CITY           SKY/WX    TMP DP  RH WIND       PRES   REMARKS
ANGOLA *+        N/A     63  54  72 E10       30.06S
FORT WAYNE     LGT RAIN  63  60  90 E10       30.04R
KENDALLVILLE + LGT RAIN  61  60  97 NE9       30.05F

$$

INZ028-029-035-036-043>045-051>053-302100-
WEST CENTRAL INDIANA

CITY           SKY/WX    TMP DP  RH WIND       PRES   REMARKS
CRAWFORDSVL +  RAIN      58  58 100 CALM      30.00F
LAFAYETTE      CLOUDY    64  59  83 NE7       30.00S
TERRE HAUTE    CLOUDY    64  57  78 SE16G22   29.98S

$$

INZ030>032-037>040-046>048-054>057-064-065-302100-
CENTRAL INDIANA

CITY           SKY/WX    TMP DP  RH WIND       PRES   REMARKS
ANDERSON       LGT RAIN  63  63 100 CALM      30.01S
COLUMBUS       PTSUNNY   64  59  82 SW5       29.99F
INDIANAPOLIS   PTSUNNY   67  56  67 CALM      29.97F
-EAGLE CREEK   CLOUDY    67  57  70 N3        29.97F
KOKOMO *+      CLOUDY    66  59  77 NE14      30.02S
MT COMFORT *+  CLOUDY    66  55  68 CALM      29.99S
SHELBYVILLE    MOSUNNY   68  55  63 VRB3      29.98F

$$

INZ033-034-041-042-049-050-058-059-302100-
EAST CENTRAL INDIANA

CITY           SKY/WX    TMP DP  RH WIND       PRES   REMARKS
MUNCIE         HVY RAIN  57  55  93 CALM      30.01R VSB 1/2

$$

INZ060-061-067>069-081>083-085>088-302100-
SOUTHWEST INDIANA

CITY           SKY/WX    TMP DP  RH WIND       PRES   REMARKS
EVANSVILLE     MOSUNNY   72  53  51 N8        29.98F
HUNTINGBURG *+   N/A     66  54  63 CALM      29.99F

$$

INZ062-063-066-070>080-084-089>092-302100-
SOUTH CENTRAL AND SOUTHEAST INDIANA

CITY           SKY/WX    TMP DP  RH WIND       PRES   REMARKS
BLOOMINGTON    CLOUDY    70  54  56 VRB7      29.98F
MADISON *+     PTSUNNY   66  48  52 S7        30.02S
SEYMOUR +      PTSUNNY   68  52  56 SE8       29.99S

$$





USA.gov is the U.S. government's official web portal to all federal, state and local government web resources and services.